Flag for U.S.A. Weather past 2 weeks in Cocoa Beach, Florida, U.S.A.

Now
78 °F

Clear.


Feels Like: 79 °F
Forecast: 74 / 85 °F
Wind: 8 mph from West

Location: Cocoa / Patrick Air Force Base

Current Time: Jul 30, 2015 at 6:55:03 AM

Latest Report: Jul 30, 2015 at 5:58 AM


Visibility: 10 mi

Pressure: 29.97 "Hg

Humidity: 94%

Dew point: 76 °F

Location of Cocoa BeachLocation

Historic Weather in Cocoa Beach — Graph

°F

Cocoa Beach temperature yesterday

Maximum temperature yesterday: 89 °F (at 2:58 PM)
Minimum temperature yesterday: 78 °F (at 3:58 AM)
Average temperature yesterday: 82 °F

Past Weeks' High & Low Weather Summary

 TemperatureHumidityPressure
High93 °F (Jul 15, 1:58 PM)96% (Jul 26, 3:58 AM)30.08 "Hg (Jul 26, 3:58 AM)
Low74 °F (Jul 18, 6:58 PM)50% (Jul 15, 1:58 PM)29.84 "Hg (Jul 26, 5:03 AM)
Average81 °F83%29.98 "Hg
* Reported Jul 15 5:58 AM — Jul 30 5:58 AM, Cocoa Beach, Weather by CustomWeather, © 2015

Note: Actual official high and low records may vary slightly from our data, if they occured in-between our weather recording intervals... More about our weather records

Advertising

Cocoa Beach weather history for previous 24 hours

 ConditionsComfort  
Time TempWeatherWind HumidityBarometerVisibility
5:58 AM
Thu, Jul 30
78 °FClear.8 mph94%29.97 "Hg10 mi
4:58 AM78 °FClear.8 mph92%29.96 "Hg10 mi
3:58 AM78 °FClear.12 mph91%29.97 "Hg10 mi
2:58 AM78 °FClear.13 mph89%29.97 "Hg10 mi
1:58 AM79 °FClear.9 mph89%29.97 "Hg10 mi
12:58 AM79 °FClear.10 mph87%29.99 "Hg10 mi
11:58 PM
Wed, Jul 29
80 °FPassing clouds.9 mph85%30.00 "Hg10 mi
10:58 PM80 °FClear.8 mph83%29.98 "Hg10 mi
9:58 PM82 °FClear.10 mph78%29.96 "Hg10 mi
8:58 PM82 °FSunny.12 mph74%29.96 "Hg10 mi
7:58 PM84 °FPassing clouds.13 mph71%29.95 "Hg10 mi
6:58 PM88 °FSunny.10 mph66%29.93 "Hg10 mi
5:58 PM87 °FSunny.7 mph71%29.92 "Hg10 mi
4:58 PM86 °FSunny.9 mph75%29.94 "Hg10 mi
3:58 PM85 °FPassing clouds.8 mph79%29.96 "Hg10 mi
2:58 PM89 °FSunny.7 mph70%29.97 "Hg10 mi
1:58 PM87 °FSunny.1 mph67%29.97 "Hg10 mi
12:58 PM87 °FPassing clouds.5 mph72%29.98 "Hg10 mi
11:58 AM85 °FSunny.8 mph77%29.98 "Hg10 mi
10:58 AM82 °FSunny.7 mph83%30.00 "Hg10 mi
9:58 AM81 °FSunny.7 mph89%29.99 "Hg10 mi
8:58 AM80 °FPassing clouds.8 mph92%29.97 "Hg10 mi
7:58 AM79 °FLow clouds.7 mph95%29.96 "Hg10 mi
6:58 AM79 °FPassing clouds.7 mph95%29.95 "Hg10 mi
Weather by CustomWeather, © 2015

See weather overviewHow to use our weather pages